Location: Hepcat Sky Observatory
(29.9800°N, 95.6500°W)
Time: 22:40:37
(UTC-05:00)

Daily predictions for brighter satellites

Satellite Brightness Start Highest point End
(mag) Time Altitude Azimuth Time Altitude Azimuth Time Altitude Azimuth
ATLAS 2A CENTAUR R/B 3.9 20:43:19 10° W 20:49:38 76° S 21:16:23 10° E
GEOS 3 Rocket 3.8 20:49:21 10° SSE 20:54:26 73° WSW 20:59:35 10° NW
ASTEX 1 4.0 20:49:39 10° S 20:54:28 61° W 20:59:20 10° NNW
Skynet4D Del rocket 4.0 20:55:53 10° W 21:01:17 54° S 21:07:18 10° ESE
Abrixas 3.4 21:01:23 10° S 21:03:34 22° SE 21:05:45 10° ENE
NOSS 3-4 (A) 4.1 20:57:47 10° NNW 21:04:53 60° ENE 21:12:23 10° SE
NOSS 3-4 (C) 4.1 20:57:53 10° NNW 21:04:59 59° ENE 21:12:28 10° SE
Okean 3 Rocket 4.3 21:01:09 10° SSE 21:05:11 34° E 21:09:14 10° NNE
Cosmos 2333 Rocket 2.7 20:59:57 10° NNW 21:05:31 61° WSW 21:11:02 10° S
SEDSat Delta rocket 3.9 21:01:17 10° W 21:05:45 39° SSW 21:09:41 11° SE
NOSS 0 Rocket 4.3 21:01:32 10° NNW 21:07:41 67° WSW 21:13:51 10° S
Cosmos 1741 Rocket 4.0 21:02:39 10° S 21:07:55 69° ESE 21:13:12 10° NNE
H-2A R/B 4.3 21:05:21 10° SSW 21:08:50 36° W 21:12:25 10° NNW
Spot 2 Rocket 3.5 21:06:21 10° SSE 21:11:23 87° WSW 21:16:29 10° NNW
Meteor 2-15 4.5 21:08:17 10° S 21:14:20 90° W 21:20:25 10° N
Helios 1B rocket 2.5 21:13:16 10° NNE 21:17:20 55° E 21:21:22 10° S
YAOGAN 6 4.0 21:15:27 13° ESE 21:17:42 23° ENE 21:20:38 10° NNE
Meteor 2-1 Rocket 4.3 21:14:29 10° N 21:20:12 61° E 21:25:46 10° SSE
Cosmos 1818 4.4 21:15:29 10° N 21:20:26 35° ENE 21:24:23 15° ESE
Cosmos 2297 Rocket 4.3 21:17:30 10° SW 21:22:28 31° WNW 21:27:27 10° N
Helios 1A 3.3 21:21:25 13° SE 21:24:53 47° ENE 21:28:51 10° N
Aureole 2 Rocket 4.2 21:21:50 10° NW 21:25:23 33° W 21:28:41 10° SSW
Delta 2 Rocket 4.1 21:22:20 10° WSW 21:27:53 85° SSE 21:33:43 10° ENE
Cosmos 2263 Rocket 3.7 21:29:13 15° ESE 21:29:52 15° E 21:32:54 10° ENE
GPS 2-05 Rocket1 2.6 21:28:22 10° WSW 21:31:27 75° NNW 21:34:33 10° ENE
ATLAS 5 CENTAUR R/B 3.7 21:27:38 10° WSW 21:31:44 32° NW 21:36:06 10° N
Envisat 3.0 21:31:02 10° SSE 21:36:06 85° WSW 21:41:13 10° NNW
Cosmos 1356 Rocket 3.5 21:32:30 10° S 21:36:39 59° E 21:40:52 10° NNE
Resurs 01 Rocket 3.2 21:33:11 10° SSW 21:37:10 33° W 21:41:09 10° NNW
USA 186 3.4 21:37:55 10° SSW 21:39:47 21° W 21:41:36 10° NW
Lacrosse 5 3.9 21:36:45 10° N 21:39:56 16° NE 21:43:07 10° E
SL-19 R/B 4.4 21:35:28 10° SSE 21:41:14 83° WSW 21:46:49 10° NNW
Meteor 1-29 3.0 21:38:46 10° N 21:42:13 83° WNW 21:45:40 10° SSW
Meteor 1-21 Rocket 4.2 21:37:58 10° S 21:43:37 69° E 21:49:11 10° NNE
Cosmos 1459 Rocket 4.1 21:46:03 10° N 21:52:10 55° E 21:55:57 23° SSE
SAR-Lupe-4 3.4 21:53:06 31° SSE 21:54:42 81° ENE 21:58:17 10° N
Cosmos 2208 Rocket 4.1 21:49:28 10° N 21:54:48 65° ENE 21:57:44 27° SSE
RESURS DK-1 4.0 21:51:52 10° NNE 21:54:56 19° ENE 21:55:44 18° ENE
Cosmos 1000 Rocket 4.4 21:49:16 10° S 21:55:33 78° E 22:01:50 10° N
H-2A ROCKET BODY 2.0 21:53:14 10° SW 21:55:50 38° SSE 22:03:00 10° E
CZ-3A R/B 3.7 21:56:16 10° SSW 21:57:21 11° SSW 21:57:21 11° SSW
Cosmos 2237 Rocket 3.8 21:52:58 10° NW 21:57:45 29° WSW 22:02:31 10° SSW
Palapa 6 Rocket 4.1 21:53:43 10° WSW 21:58:38 32° S 21:59:55 28° SSE
Cosmos 1674 3.1 21:55:35 10° SSW 21:59:18 60° W 22:03:01 10° N
Cosmos 2100 Rocket 4.0 21:54:42 10° N 22:01:02 73° E 22:05:15 22° SSE
Cosmos 1939 Rocket 3.7 21:59:22 16° S 22:02:22 47° W 22:06:17 10° NNW
Cosmos 2123 Rocket 4.2 22:01:03 26° SSE 22:04:12 47° E 22:10:06 10° NNE
Milstar 3 Cent rocket 3.5 21:57:48 10° W 22:04:30 61° SSW 22:12:41 24° ESE
Cosmos 1076 Rocket 4.0 22:00:31 10° SSW 22:04:49 59° W 22:09:07 10° N
Cosmos 1570 Rocket 4.0 21:59:57 10° NNW 22:05:15 88° WSW 22:08:03 28° SSE
Cosmos 1603 4.5 22:02:01 10° N 22:07:12 36° ENE 22:09:00 29° ESE
ARGOS 3.8 22:05:26 30° ESE 22:07:16 39° ENE 22:12:15 10° N
Cosmos 2173 Rocket 3.9 22:02:57 10° N 22:09:09 78° E 22:12:52 26° SSE
Cosmos 2061 Rocket 4.0 22:05:01 10° N 22:11:25 74° E 22:15:00 28° SSE
Cosmos 1242 Rocket 2.6 22:09:13 10° N 22:12:55 78° W 22:13:51 48° S
Cosmos 1408 Rocket 3.5 22:10:38 25° S 22:13:06 81° W 22:17:25 10° N
SAR-Lupe-1 4.4 22:13:08 40° SSW 22:14:13 62° WSW 22:17:48 10° NNW
Meteor 2-17 Rocket 4.4 22:09:33 10° N 22:15:44 86° W 22:19:28 25° S
Cosmos 1908 3.6 22:14:37 10° NNW 22:18:25 58° W 22:19:43 36° SSW
Cosmos 2151 4.4 22:19:26 24° ENE 22:19:26 24° ENE 22:22:03 10° NNE
USA 234 3.2 22:15:39 10° NE 22:22:13 89° NW 22:28:45 10° SW
SL-16 R/B 3.0 22:18:21 10° NNW 22:23:43 46° WSW 22:26:57 23° SSW
ERS-1 Rocket 2.9 22:21:48 37° S 22:23:49 82° WSW 22:28:52 10° NNW
Cosmos 2221 3.9 22:22:13 10° NNW 22:26:13 35° W 22:28:52 18° SSW
Cosmos 468 Rocket 4.0 22:22:25 10° N 22:27:29 60° ENE 22:28:26 51° ESE
Cosmos 1725 Rocket 4.1 22:27:26 10° N 22:33:35 58° E 22:35:05 46° SE
Cosmos 1500 Rocket 3.8 22:34:23 52° ENE 22:34:23 52° ENE 22:38:22 10° NNE
Cosmos 1802 Rocket 4.1 22:30:39 10° N 22:36:45 72° W 22:39:43 32° S
Sakura Rocket 4.1 22:28:44 10° W 22:37:14 80° S 22:39:33 44° ESE
SL-08 R/B 4.4 22:31:22 10° N 22:37:46 78° E 22:39:52 45° SSE
Atlas Centaur 2 2.9 22:38:14 10° W 22:39:58 22° WSW 22:39:58 22° WSW
H-2A R/B 2.1 22:48:33 61° E 22:48:59 64° ENE 22:54:19 10° N
Cosmos 1864 Rocket 4.4 22:49:21 10° N 22:55:44 90° SW 22:57:10 57° S
Cosmos 1626 4.1 22:58:41 23° NNE 22:58:41 23° NNE 23:00:14 10° NNE
CZ-4C R/B 3.9 22:59:53 18° ENE 22:59:53 18° ENE 23:01:27 10° NE
Meteor 1-11 4.2 22:57:30 60° S 22:58:38 88° W 23:04:28 10° N
Meteor 2-10 4.1 22:55:39 10° N 23:01:20 83° W 23:02:02 69° SSW
Cosmos 1328 Rocket 3.9 22:57:13 10° NNW 23:01:02 61° NW 23:01:02 61° NW
Cosmos 1151 Rocket 3.9 23:00:19 10° N 23:03:28 44° NNE 23:03:28 44° NNE
Orbus 7S 4.4 22:50:16 10° W 23:04:47 68° SSW 23:05:13 66° SSE
Cosmos 371 Rocket 3.4 23:01:30 10° NNW 23:05:55 73° NW 23:05:55 73° NW
H-2A R/B 3.8 23:07:51 23° NE 23:07:51 23° NE 23:10:02 10° NNE
Cosmos 1726 3.8 23:03:23 10° NNW 23:06:02 30° WNW 23:06:02 30° WNW
Cosmos 1515 Rocket 4.1 23:04:26 10° N 23:07:50 54° NNW 23:07:50 54° NNW
Cosmos 2263 Rocket 2.8 23:10:47 30° SW 23:13:14 51° WNW 23:18:40 10° N
SPOT 5 3.7 23:14:52 43° WSW 23:15:01 43° W 23:19:46 10° NNW
Cosmos 1300 4.5 23:13:24 10° NNW 23:15:58 29° WNW 23:15:58 29° WNW
Meteor 1-27 4.2 23:15:10 10° N 23:20:44 83° N 23:20:44 83° N
Cosmos 1354 Rocket 4.2 23:21:04 65° WNW 23:21:04 65° WNW 23:26:14 10° N
Cosmos 2228 Rocket 4.2 23:18:16 10° NNW 23:22:09 40° WNW 23:22:09 40° WNW
Cosmos 2058 4.3 23:24:03 38° NW 23:24:03 38° NW 23:27:02 10° N
Lacrosse 5 2.4 23:18:16 10° NW 23:22:21 55° WNW 23:22:21 55° WNW
Cosmos 2233 Rocket 3.8 23:18:01 10° N 23:24:12 86° W 23:24:21 84° SW
Meteor 2-12 Rocket 4.3 23:25:03 10° N 23:30:51 83° N 23:30:51 83° N
Cosmos 841 Rocket 4.0 23:31:06 10° NNW 23:35:19 55° NW 23:35:19 55° NW
Cosmos 1763 Rocket 4.3 23:31:57 10° NNW 23:35:59 44° WNW 23:35:59 44° WNW
Terra 2.9 23:46:09 42° NNW 23:46:09 42° NNW 23:49:22 10° NNW
Cosmos 1844 Rocket 4.1 23:49:03 28° NE 23:49:03 28° NE 23:51:47 10° NNE
